PDT,Max TemperatureF,Mean TemperatureF,Min TemperatureF,Max Dew PointF,MeanDew PointF,Min DewpointF,Max Humidity, Mean Humidity, Min Humidity, Max Sea Level PressureIn, Mean Sea Level PressureIn, Min Sea Level PressureIn, Max VisibilityMiles, Mean VisibilityMiles, Min VisibilityMiles, Max Wind SpeedMPH, Mean Wind SpeedMPH, Max Gust SpeedMPH,PrecipitationIn, CloudCover, Events, WindDirDegrees
2013-5-1,82,70,57,50,35,25,63,34,13,30.10,29.97,29.86,10,10,10,9,5,,0.00,0,,288
2013-5-2,89,73,57,48,39,25,72,41,11,30.17,30.12,30.09,10,10,10,15,2,18,0.00,0,,238
2013-5-3,87,73,59,50,37,28,52,35,12,30.10,29.97,29.82,10,10,10,13,3,,0.00,0,,303
2013-5-4,84,70,57,59,45,39,72,52,27,29.81,29.70,29.57,10,10,10,17,3,22,0.00,0,,274
2013-5-5,68,62,57,50,46,45,67,59,46,29.82,29.70,29.62,10,10,10,20,12,30,0.00,5,,177
2013-5-6,68,62,57,52,48,46,72,62,49,29.98,29.87,29.83,10,10,10,13,6,,0.00,6,,189
2013-5-7,69,62,55,54,50,48,82,67,46,30.07,30.01,29.97,10,10,10,14,5,18,0.00,5,,245
2013-5-8,62,58,53,50,49,48,88,79,59,30.18,30.12,30.07,10,10,7,16,6,22,0.00,5,,289
2013-5-9,66,60,53,50,48,46,82,76,52,30.18,30.16,30.11,10,10,10,17,7,,0.00,6,,267
2013-5-10,68,60,53,52,43,25,82,58,28,30.20,30.18,30.15,10,10,10,13,7,,0.00,3,,295
2013-5-11,80,66,53,57,51,48,94,78,32,30.18,30.13,30.06,10,9,5,12,5,,0.00,5,,345
2013-5-12,77,66,55,57,50,43,82,68,34,30.17,30.12,30.06,10,10,10,14,4,16,0.00,1,,283
2013-5-13,73,63,53,57,49,46,82,69,50,30.12,30.05,29.98,10,10,10,16,5,22,0.00,0,,304
2013-5-14,68,62,53,50,47,43,77,67,46,30.06,30.00,29.97,10,10,7,20,8,26,0.00,2,,275
2013-5-15,62,58,53,50,46,45,82,69,52,30.10,30.07,30.05,10,10,8,20,11,23,0.00,5,,253
2013-5-16,66,60,55,54,50,41,88,76,55,30.06,30.04,30.02,10,10,8,16,7,20,0.00,4,Rain,278
2013-5-17,64,58,53,48,46,43,77,70,45,30.12,30.06,30.01,10,10,10,17,7,22,0.00,1,,259
2013-5-18,69,60,51,50,47,43,82,67,40,30.16,30.12,30.11,10,10,10,20,7,24,0.00,1,,267
2013-5-19,80,66,53,48,45,39,82,57,26,30.14,30.09,29.99,10,10,10,13,6,16,0.00,1,,299
2013-5-20,87,71,55,55,44,34,72,53,16,30.02,29.99,29.94,10,10,10,16,3,23,0.00,1,,292
2013-5-21,66,58,51,48,43,39,72,60,37,30.02,29.99,29.95,10,10,9,25,9,36,0.00,1,,287
2013-5-22,62,55,48,41,37,32,71,58,32,30.05,30.00,29.96,10,10,10,21,12,28,0.00,1,,291
2013-5-23,64,57,50,43,41,37,76,63,42,30.03,29.99,29.94,10,10,7,22,12,37,0.00,2,,279
2013-5-24,66,57,48,45,42,37,82,66,40,30.03,30.01,29.99,10,10,10,21,5,31,0.00,0,,268
2013-5-25,60,55,50,48,46,43,82,76,55,30.10,30.04,30.01,10,10,9,21,7,28,0.00,1,,254
2013-5-26,68,60,53,52,50,48,88,77,49,30.17,30.12,30.09,10,10,10,17,9,23,0.00,5,,277
2013-5-27,64,60,55,55,51,48,88,77,59,30.17,30.11,30.02,10,10,8,15,6,,0.00,7,Rain,264
2013-5-28,68,62,55,57,53,46,94,78,56,30.03,29.99,29.96,10,10,10,15,6,18,0.00,5,,281
2013-5-29,66,60,55,54,48,45,82,68,52,30.00,29.97,29.94,10,10,10,20,6,23,0.00,4,,272
2013-5-30,71,60,50,46,44,39,82,62,37,30.01,29.99,29.96,10,10,7,17,7,24,0.00,0,,285
2013-5-31,86,68,51,54,45,43,77,58,22,30.04,29.99,29.93,19,10,10,16,5,20,0.00,0,,310